CAPE
163 17 125 266 285 325 371 424 387 377 370 369 342 298 277 238 201 158 133 142 110 33 0 0 12 7 0 0 0 0 0 0
8 0 8 190 243 358 380 357 336 354 320 254 218 228 231 205 208 200 126 103 148 146 24 0 0 0 0 0 0 0 0 0
47 13 85 119 184 282 309 380 298 271 219 193 47 27 27 0 67 111 96 88 73 26 1 0 0 0 0 0 0 0 0 0
9 4 23 92 91 129 141 187 86 33 36 17 12 2 0 0 1 8 22 23 4 0 0 0 0 0 0 0 0 0 0 0
0 14 20 144 75 33 44 24 9 0 0 0 0 1 0 0 0 0 0 0 0 0 0 0 0 0 0 0 0 0 0 0
1 10 116 149 38 0 6 2 1 0 0 0 1 4 0 0 0 0 0 0 0 0 0 0 0 0 0 0 0 0 0 0
0 18 140 98 45 0 1 0 0 6 25 55 62 53 1 0 0 0 0 0 0 0 0 0 0 0 0 0 0 0 0 0
1 55 123 90 9 0 0 0 0 52 153 169 198 80 81 93 43 14 0 0 0 2 4 1 0 0 0 0 0 0 0 0
15 64 154 74 0 0 0 0 96 266 297 284 198 115 51 39 41 15 13 0 11 27 0 0 0 0 0 0 0 0 0 0
22 127 198 73 0 0 0 0 316 295 272 164 195 118 83 61 47 38 20 20 19 7 0 0 0 0 0 0 0 0 0 0
58 125 188 117 0 0 0 33 309 249 194 174 146 96 59 56 43 16 12 20 12 0 0 0 0 0 0 0 0 0 0 0
111 161 223 154 0 0 11 245 252 199 24 25 0 1 2 4 0 0 7 8 0 0 0 0 0 0 0 0 0 0 0 0
123 248 289 191 11 7 123 294 252 253 187 84 25 0 0 0 0 3 0 0 0 0 0 0 0 0 0 0 0 0 0 0
197 182 330 356 51 16 76 177 328 239 399 147 5 0 2 1 0 0 0 0 0 0 0 0 0 0 0 0 0 0 0 0
253 312 419 370 91 35 88 171 291 285 181 40 7 25 49 10 0 0 0 0 0 0 0 0 0 0 0 0 0 0 0 0
311 442 462 398 326 110 172 254 307 324 97 15 14 53 59 1 0 0 0 0 0 0 0 0 5 0 0 0 0 0 0 0
443 530 572 449 269 176 227 306 277 83 23 21 64 77 53 0 0 0 0 0 0 1 5 26 17 0 0 0 0 0 0 0
552 561 556 347 162 209 250 251 164 105 60 69 60 69 33 19 1 0 0 0 6 23 19 0 0 0 0 0 0 0 0 0
576 644 568 403 288 288 251 205 158 201 105 56 55 35 11 8 8 7 5 3 10 4 19 10 1 0 0 0 0 0 0 0
592 667 753 533 351 287 319 188 337 335 166 117 99 27 30 36 52 11 8 7 4 5 0 0 0 0 0 0 0 0 0 0
CIN
-0 -0 -4 -6 -13 -27 -3 -3 -5 -13 -34 -20 -27 -39 -42 -51 -79 -93 -94 -74 -84 -152 -0 -0 -140 -51 -0 -0 -0 -0 -0 -0
-0 -0 -2 -11 -21 -3 -4 -8 -27 -58 -36 -52 -67 -64 -61 -71 -84 -104 -122 -98 -103 -87 -128 -6 -0 -0 -0 -0 -0 -0 -0 -0
-1 -3 -11 -30 -26 -12 -3 -2 -52 -47 -75 -80 -205 -217 -228 -0 -178 -132 -161 -172 -158 -126 -11 -0 -0 -0 -0 -0 -0 -0 -0 -0
-3 -0 -51 -53 -6 -37 -61 -73 -126 -182 -203 -260 -301 -145 -0 -0 -30 -145 -163 -156 -66 -0 -0 -0 -0 -0 -0 -0 -0 -0 -0 -0
-0 -1 -61 -3 -72 -129 -131 -211 -276 -43 -43 -0 -0 -117 -0 -0 -0 -0 -0 -0 -0 -0 -0 -0 -0 -0 -0 -0 -0 -0 -0 -0
-0 -100 -1 -0 -117 -0 -256 -346 -294 -0 -0 -0 -53 -97 -0 -0 -0 -0 -0 -0 -0 -0 -0 -0 -0 -0 -0 -0 -0 -0 -0 -0
-0 -53 -29 -79 -177 -0 -234 -0 -0 -126 -55 -36 -43 -73 -11 -0 -0 -0 -6 -0 -0 -0 -0 -0 -0 -0 -0 -0 -0 -0 -0 -0
-2 -126 -59 -85 -258 -0 -0 -0 -0 -21 -9 -15 -21 -47 -35 -37 -28 -29 -0 -0 -0 -1 -1 -2 -0 -0 -0 -0 -0 -0 -0 -0
-90 -51 -40 -78 -0 -0 -0 -0 -40 -13 -19 -27 -34 -34 -20 -36 -25 -24 -16 -0 -2 -0 -0 -0 -0 -0 -0 -0 -0 -0 -0 -0
-213 -57 -40 -93 -0 -0 -0 -0 -10 -8 -10 -19 -16 -16 -24 -19 -16 -6 -4 -4 -2 -2 -0 -0 -0 -0 -0 -0 -0 -0 -0 -0
-207 -142 -76 -81 -0 -0 -0 -50 -11 -18 -19 -17 -16 -19 -27 -14 -7 -5 -7 -5 -1 -0 -0 -0 -0 -0 -0 -0 -0 -0 -0 -0
-149 -125 -115 -125 -0 -0 -76 -11 -9 -3 -15 -8 -0 -10 -9 -42 -0 -0 -4 -2 -0 -0 -0 -0 -0 -0 -0 -0 -0 -0 -0 -0
-227 -116 -86 -98 -194 -176 -28 -2 -5 -4 -0 -12 -4 -0 -0 -0 -0 -2 -1 -0 -0 -0 -0 -0 -0 -0 -0 -0 -0 -0 -0 -0
-226 -203 -93 -79 -155 -187 -84 -24 -2 -6 -0 -2 -5 -0 -5 -2 -0 -0 -0 -0 -0 -0 -0 -0 -0 -0 -0 -0 -0 -0 -0 -0
-236 -182 -108 -100 -154 -161 -98 -23 -7 -17 -12 -13 -6 -1 -0 -13 -0 -0 -0 -0 -0 -0 -0 -0 -0 -0 -0 -0 -0 -0 -0 -0
-209 -155 -104 -101 -103 -162 -102 -56 -36 -18 -28 -2 -4 -2 -0 -5 -0 -0 -0 -0 -0 -0 -0 -0 -0 -0 -0 -0 -0 -0 -0 -0
-186 -135 -93 -103 -110 -131 -72 -32 -16 -22 -4 -3 -0 -5 -21 -0 -0 -0 -0 -0 -0 -12 -9 -3 -0 -0 -0 -0 -0 -0 -0 -0
-184 -156 -128 -145 -51 -108 -80 -45 -40 -19 -18 -4 -8 -26 -40 -43 -30 -0 -0 -0 -34 -3 -13 -0 -1 -0 -0 -0 -0 -0 -0 -0
-136 -105 -93 -72 -24 -19 -31 -37 -28 -12 -10 -22 -26 -39 -53 -61 -44 -35 -23 -23 -6 -2 -0 -0 -0 -0 -0 -0 -0 -0 -0 -0
-99 -96 -65 -52 -20 -20 -18 -18 -3 -3 -16 -24 -23 -52 -31 -20 -13 -23 -3 -6 -9 -0 -0 -0 -0 -0 -0 -0 -0 -0 -0 -0
Wind_Speed
56 nan 48 46 49 45 39 38 40 43 49 48 46 23 16 18 20 23 30 29 32 nan nan nan nan nan nan nan nan nan nan nan
nan nan nan 44 40 49 43 36 36 38 46 40 11 11 13 16 16 23 28 25 31 37 nan nan nan nan nan nan nan nan nan nan
nan nan nan 48 50 46 42 45 36 38 37 15 nan nan nan nan nan 21 nan nan nan nan nan nan nan nan nan nan nan nan nan nan
nan nan nan nan nan 20 23 25 nan nan nan nan nan nan nan nan nan nan nan nan nan nan nan nan nan nan nan nan nan nan nan nan
nan nan nan 35 nan nan nan nan nan nan nan nan nan nan nan nan nan nan nan nan nan nan nan nan nan nan nan nan nan nan nan nan
nan nan 25 28 nan nan nan nan nan nan nan nan nan nan nan nan nan nan nan nan nan nan nan nan nan nan nan nan nan nan nan nan
nan nan 17 nan nan nan nan nan nan nan nan nan nan nan nan nan nan nan nan nan nan nan nan nan nan nan nan nan nan nan nan nan
nan nan 14 nan nan nan nan nan nan nan 6 9 11 nan nan nan nan nan nan nan nan nan nan nan nan nan nan nan nan nan nan nan
nan nan 11 nan nan nan nan nan nan 8 8 12 13 15 nan nan nan nan nan nan nan nan nan nan nan nan nan nan nan nan nan nan
nan 4 4 nan nan nan nan nan 11 12 11 12 12 13 nan nan nan nan nan nan nan nan nan nan nan nan nan nan nan nan nan nan
nan 2 2 5 nan nan nan nan 11 10 10 7 7 nan nan nan nan nan nan nan nan nan nan nan nan nan nan nan nan nan nan nan
2 2 7 7 nan nan nan 10 9 6 nan nan nan nan nan nan nan nan nan nan nan nan nan nan nan nan nan nan nan nan nan nan
5 8 7 10 nan nan 6 4 5 7 9 nan nan nan nan nan nan nan nan nan nan nan nan nan nan nan nan nan nan nan nan nan
6 9 10 9 nan nan nan 7 7 11 15 19 nan nan nan nan nan nan nan nan nan nan nan nan nan nan nan nan nan nan nan nan
7 8 11 10 nan nan nan 14 15 17 19 nan nan nan nan nan nan nan nan nan nan nan nan nan nan nan nan nan nan nan nan nan
8 10 11 11 13 12 12 14 20 20 nan nan nan nan nan nan nan nan nan nan nan nan nan nan nan nan nan nan nan nan nan nan
14 15 12 11 12 13 15 19 23 nan nan nan nan nan nan nan nan nan nan nan nan nan nan nan nan nan nan nan nan nan nan nan
17 14 12 15 12 16 21 26 30 31 nan nan nan nan nan nan nan nan nan nan nan nan nan nan nan nan nan nan nan nan nan nan
11 13 9 15 17 22 25 31 35 38 40 nan nan nan nan nan nan nan nan nan nan nan nan nan nan nan nan nan nan nan nan nan
12 13 10 20 24 27 31 36 37 37 38 40 nan nan nan nan nan nan nan nan nan nan nan nan nan nan nan nan nan nan nan nan
Wind_Direction
280 nan 250 246 253 251 252 268 274 274 275 268 270 260 244 254 260 259 258 266 275 nan nan nan nan nan nan nan nan nan nan nan
nan nan nan 251 241 239 252 266 271 277 272 267 227 236 242 244 246 252 258 274 274 275 nan nan nan nan nan nan nan nan nan nan
nan nan nan 250 236 233 264 264 266 266 258 240 nan nan nan nan nan 267 nan nan nan nan nan nan nan nan nan nan nan nan nan nan
nan nan nan nan nan 261 262 247 nan nan nan nan nan nan nan nan nan nan nan nan nan nan nan nan nan nan nan nan nan nan nan nan
nan nan nan 229 nan nan nan nan nan nan nan nan nan nan nan nan nan nan nan nan nan nan nan nan nan nan nan nan nan nan nan nan
nan nan 236 229 nan nan nan nan nan nan nan nan nan nan nan nan nan nan nan nan nan nan nan nan nan nan nan nan nan nan nan nan
nan nan 195 nan nan nan nan nan nan nan nan nan nan nan nan nan nan nan nan nan nan nan nan nan nan nan nan nan nan nan nan nan
nan nan 84 nan nan nan nan nan nan nan 220 250 259 nan nan nan nan nan nan nan nan nan nan nan nan nan nan nan nan nan nan nan
nan nan 139 nan nan nan nan nan nan 237 250 264 263 263 nan nan nan nan nan nan nan nan nan nan nan nan nan nan nan nan nan nan
nan 154 183 nan nan nan nan nan 243 242 251 262 279 277 nan nan nan nan nan nan nan nan nan nan nan nan nan nan nan nan nan nan
nan 143 220 234 nan nan nan nan 236 248 252 260 278 nan nan nan nan nan nan nan nan nan nan nan nan nan nan nan nan nan nan nan
70 256 258 266 nan nan nan 247 239 242 nan nan nan nan nan nan nan nan nan nan nan nan nan nan nan nan nan nan nan nan nan nan
0 322 317 296 nan nan 251 239 216 232 259 nan nan nan nan nan nan nan nan nan nan nan nan nan nan nan nan nan nan nan nan nan
344 329 323 304 nan nan nan 242 246 254 270 288 nan nan nan nan nan nan nan nan nan nan nan nan nan nan nan nan nan nan nan nan
332 315 305 294 nan nan nan 241 251 269 285 nan nan nan nan nan nan nan nan nan nan nan nan nan nan nan nan nan nan nan nan nan
308 292 287 272 271 271 268 283 286 293 nan nan nan nan nan nan nan nan nan nan nan nan nan nan nan nan nan nan nan nan nan nan
292 287 286 270 272 279 290 286 287 nan nan nan nan nan nan nan nan nan nan nan nan nan nan nan nan nan nan nan nan nan nan nan
299 298 301 306 313 310 310 308 306 308 nan nan nan nan nan nan nan nan nan nan nan nan nan nan nan nan nan nan nan nan nan nan
287 289 326 316 318 316 314 314 317 320 313 nan nan nan nan nan nan nan nan nan nan nan nan nan nan nan nan nan nan nan nan nan
294 299 323 319 322 326 316 317 314 313 304 300 nan nan nan nan nan nan nan nan nan nan nan nan nan nan nan nan nan nan nan nan